Year,Month,Day,Hour,Minute,Value (Times are PST for temperature in C)
2019,08,14,00,00,18.30
2019,08,14,00,01,18.30
2019,08,14,00,02,18.30
2019,08,14,00,03,18.20
2019,08,14,00,04,18.20
2019,08,14,00,05,18.20
2019,08,14,00,06,18.20
2019,08,14,00,07,18.20
2019,08,14,00,08,18.20
2019,08,14,00,09,18.20
2019,08,14,00,10,18.20
2019,08,14,00,11,18.10
2019,08,14,00,12,18.10
2019,08,14,00,13,18.10
2019,08,14,00,14,18.10
2019,08,14,00,15,18.10
2019,08,14,00,16,18.10
2019,08,14,00,17,18.10
2019,08,14,00,18,18.10
2019,08,14,00,19,18.00
2019,08,14,00,20,18.00
2019,08,14,00,21,18.00
2019,08,14,00,22,18.00
2019,08,14,00,23,18.00
2019,08,14,00,24,17.90
2019,08,14,00,25,17.90
2019,08,14,00,26,17.90
2019,08,14,00,27,17.90
2019,08,14,00,28,17.90
2019,08,14,00,29,17.90
2019,08,14,00,30,17.90
2019,08,14,00,31,17.90
2019,08,14,00,32,17.90
2019,08,14,00,33,17.80
2019,08,14,00,34,17.80
2019,08,14,00,35,17.80
2019,08,14,00,36,17.80
2019,08,14,00,37,17.80
2019,08,14,00,38,17.80
2019,08,14,00,39,17.80
2019,08,14,00,40,17.80
2019,08,14,00,41,17.80
2019,08,14,00,42,17.80
2019,08,14,00,43,17.80
2019,08,14,00,44,17.80
2019,08,14,00,45,17.80
2019,08,14,00,46,17.80
2019,08,14,00,47,17.80
2019,08,14,00,48,17.80
2019,08,14,00,49,17.80
2019,08,14,00,50,17.70
2019,08,14,00,51,17.70
2019,08,14,00,52,17.70
2019,08,14,00,53,17.70
2019,08,14,00,54,17.70
2019,08,14,00,55,17.70
2019,08,14,00,56,17.70
2019,08,14,00,57,17.70
2019,08,14,00,58,17.70
2019,08,14,00,59,17.70
2019,08,14,01,00,17.70
2019,08,14,01,01,17.60
2019,08,14,01,02,17.60
2019,08,14,01,03,17.60
2019,08,14,01,04,17.60
2019,08,14,01,05,17.60
2019,08,14,01,06,17.60
2019,08,14,01,07,17.60
2019,08,14,01,08,17.50
2019,08,14,01,09,17.50
2019,08,14,01,10,17.50
2019,08,14,01,11,17.50
2019,08,14,01,12,17.50
2019,08,14,01,13,17.50
2019,08,14,01,14,17.40
2019,08,14,01,15,17.40
2019,08,14,01,16,17.40
2019,08,14,01,17,17.40
2019,08,14,01,18,17.40
2019,08,14,01,19,17.40
2019,08,14,01,20,17.40
2019,08,14,01,21,17.40
2019,08,14,01,22,17.40
2019,08,14,01,23,17.40
2019,08,14,01,24,17.30
2019,08,14,01,25,17.30
2019,08,14,01,26,17.30
2019,08,14,01,27,17.30
2019,08,14,01,28,17.30
2019,08,14,01,29,17.30
2019,08,14,01,30,17.30
2019,08,14,01,31,17.30
2019,08,14,01,32,17.30
2019,08,14,01,33,17.30
2019,08,14,01,34,17.30
2019,08,14,01,35,17.30
2019,08,14,01,36,17.30
2019,08,14,01,37,17.30
2019,08,14,01,38,17.30
2019,08,14,01,39,17.30
2019,08,14,01,40,17.30
2019,08,14,01,41,17.30
2019,08,14,01,42,17.30
2019,08,14,01,43,17.30
2019,08,14,01,44,17.30
2019,08,14,01,45,17.30
2019,08,14,01,46,17.30
2019,08,14,01,47,17.30
2019,08,14,01,48,17.30
2019,08,14,01,49,17.30
2019,08,14,01,50,17.30
2019,08,14,01,51,17.30
2019,08,14,01,52,17.30
2019,08,14,01,53,17.30
2019,08,14,01,54,17.30
2019,08,14,01,55,17.30
2019,08,14,01,56,17.30
2019,08,14,01,57,17.30
2019,08,14,01,58,17.30
2019,08,14,01,59,17.30
2019,08,14,02,00,17.30
2019,08,14,02,01,17.20
2019,08,14,02,02,17.20
2019,08,14,02,03,17.20
2019,08,14,02,04,17.20
2019,08,14,02,05,17.20
2019,08,14,02,06,17.20
2019,08,14,02,07,17.20
2019,08,14,02,08,17.20
2019,08,14,02,09,17.20
2019,08,14,02,10,17.20
2019,08,14,02,11,17.20
2019,08,14,02,12,17.10
2019,08,14,02,13,17.10
2019,08,14,02,14,17.10
2019,08,14,02,15,17.10
2019,08,14,02,16,17.10
2019,08,14,02,17,17.10
2019,08,14,02,18,17.10
2019,08,14,02,19,17.00
2019,08,14,02,20,17.00
2019,08,14,02,21,17.00
2019,08,14,02,22,17.00
2019,08,14,02,23,16.90
2019,08,14,02,24,16.90
2019,08,14,02,25,16.90
2019,08,14,02,26,16.80
2019,08,14,02,27,16.80
2019,08,14,02,28,16.80
2019,08,14,02,29,16.80
2019,08,14,02,30,16.80
2019,08,14,02,31,16.80
2019,08,14,02,32,16.80
2019,08,14,02,33,16.80
2019,08,14,02,34,16.70
2019,08,14,02,35,16.70
2019,08,14,02,36,16.70
2019,08,14,02,37,16.70
2019,08,14,02,38,16.70
2019,08,14,02,39,16.60
2019,08,14,02,40,16.60
2019,08,14,02,41,16.60
2019,08,14,02,42,16.60
2019,08,14,02,43,16.60
2019,08,14,02,44,16.60
2019,08,14,02,45,16.60
2019,08,14,02,46,16.60
2019,08,14,02,47,16.60
2019,08,14,02,48,16.60
2019,08,14,02,49,16.50
2019,08,14,02,50,16.50
2019,08,14,02,51,16.50
2019,08,14,02,52,16.50
2019,08,14,02,53,16.50
2019,08,14,02,54,16.50
2019,08,14,02,55,16.50
2019,08,14,02,56,16.50
2019,08,14,02,57,16.50
2019,08,14,02,58,16.40
2019,08,14,02,59,16.40
2019,08,14,03,00,16.40
2019,08,14,03,01,16.40
2019,08,14,03,02,16.40
2019,08,14,03,03,16.40
2019,08,14,03,04,16.40
2019,08,14,03,05,16.40
2019,08,14,03,06,16.40
2019,08,14,03,07,16.40
2019,08,14,03,08,16.40
2019,08,14,03,09,16.30
2019,08,14,03,10,16.30
2019,08,14,03,11,16.30
2019,08,14,03,12,16.30
2019,08,14,03,13,16.30
2019,08,14,03,14,16.30
2019,08,14,03,15,16.30
2019,08,14,03,16,16.30
2019,08,14,03,17,16.30
2019,08,14,03,18,16.30
2019,08,14,03,19,16.30
2019,08,14,03,20,16.30
2019,08,14,03,21,16.30
2019,08,14,03,22,16.30
2019,08,14,03,23,16.30
2019,08,14,03,24,16.20
2019,08,14,03,25,16.20
2019,08,14,03,26,16.20
2019,08,14,03,27,16.20
2019,08,14,03,28,16.20
2019,08,14,03,29,16.20
2019,08,14,03,30,16.20
2019,08,14,03,31,16.20
2019,08,14,03,32,16.20
2019,08,14,03,33,16.20
2019,08,14,03,34,16.20
2019,08,14,03,35,16.20
2019,08,14,03,36,16.20
2019,08,14,03,37,16.20
2019,08,14,03,38,16.20
2019,08,14,03,39,16.10
2019,08,14,03,40,16.10
2019,08,14,03,41,16.10
2019,08,14,03,42,16.10
2019,08,14,03,43,16.10
2019,08,14,03,44,16.10
2019,08,14,03,45,16.10
2019,08,14,03,46,16.10
2019,08,14,03,47,16.10
2019,08,14,03,48,16.10
2019,08,14,03,49,16.10
2019,08,14,03,50,16.10
2019,08,14,03,51,16.10
2019,08,14,03,52,16.10
2019,08,14,03,53,16.10
2019,08,14,03,54,16.10
2019,08,14,03,55,16.10
2019,08,14,03,56,16.10
2019,08,14,03,57,16.10
2019,08,14,03,58,16.10
2019,08,14,03,59,16.10
2019,08,14,04,00,16.10
2019,08,14,04,01,16.10
2019,08,14,04,02,16.10
2019,08,14,04,03,16.10
2019,08,14,04,04,16.10
2019,08,14,04,05,16.10
2019,08,14,04,06,16.10
2019,08,14,04,07,16.10
2019,08,14,04,08,16.00
2019,08,14,04,09,16.00
2019,08,14,04,10,16.00
2019,08,14,04,11,16.00
2019,08,14,04,12,16.00
2019,08,14,04,13,16.00
2019,08,14,04,14,16.00
2019,08,14,04,15,16.00
2019,08,14,04,16,16.00
2019,08,14,04,17,15.90
2019,08,14,04,18,15.90
2019,08,14,04,19,15.90
2019,08,14,04,20,15.90
2019,08,14,04,21,15.90
2019,08,14,04,22,15.90
2019,08,14,04,23,15.80
2019,08,14,04,24,15.80
2019,08,14,04,25,15.80
2019,08,14,04,26,15.80
2019,08,14,04,27,15.80
2019,08,14,04,28,15.80
2019,08,14,04,29,15.80
2019,08,14,04,30,15.80
2019,08,14,04,31,15.80
2019,08,14,04,32,15.80
2019,08,14,04,33,15.70
2019,08,14,04,34,15.70
2019,08,14,04,35,15.70
2019,08,14,04,36,15.70
2019,08,14,04,37,15.70
2019,08,14,04,38,15.70
2019,08,14,04,39,15.70
2019,08,14,04,40,15.60
2019,08,14,04,41,15.60
2019,08,14,04,42,15.60
2019,08,14,04,43,15.60
2019,08,14,04,44,15.60
2019,08,14,04,45,15.50
2019,08,14,04,46,15.50
2019,08,14,04,47,15.50
2019,08,14,04,48,15.50
2019,08,14,04,49,15.50
2019,08,14,04,50,15.50
2019,08,14,04,51,15.50
2019,08,14,04,52,15.50
2019,08,14,04,53,15.50
2019,08,14,04,54,15.50
2019,08,14,04,55,15.50
2019,08,14,04,56,15.50
2019,08,14,04,57,15.50
2019,08,14,04,58,15.50
2019,08,14,04,59,15.50
2019,08,14,05,00,15.50
2019,08,14,05,01,15.50
2019,08,14,05,02,15.50
2019,08,14,05,03,15.50
2019,08,14,05,04,15.50
2019,08,14,05,05,15.50
2019,08,14,05,06,15.50
2019,08,14,05,07,15.50
2019,08,14,05,08,15.50
2019,08,14,05,09,15.50
2019,08,14,05,10,15.40
2019,08,14,05,11,15.40
2019,08,14,05,12,15.40
2019,08,14,05,13,15.40
2019,08,14,05,14,15.40
2019,08,14,05,15,15.40
2019,08,14,05,16,15.40
2019,08,14,05,17,15.40
2019,08,14,05,18,15.30
2019,08,14,05,19,15.30
2019,08,14,05,20,15.30
2019,08,14,05,21,15.30
2019,08,14,05,22,15.30
2019,08,14,05,23,15.30
2019,08,14,05,24,15.30
2019,08,14,05,25,15.30
2019,08,14,05,26,15.30
2019,08,14,05,27,15.30
2019,08,14,05,28,15.30
2019,08,14,05,29,15.30
2019,08,14,05,30,15.30
2019,08,14,05,31,15.30
2019,08,14,05,32,15.30
2019,08,14,05,33,15.30
2019,08,14,05,34,15.30
2019,08,14,05,35,15.30
2019,08,14,05,36,15.20
2019,08,14,05,37,15.20
2019,08,14,05,38,15.20
2019,08,14,05,39,15.20
2019,08,14,05,40,15.20
2019,08,14,05,41,15.20
2019,08,14,05,42,15.20
2019,08,14,05,43,15.20
2019,08,14,05,44,15.20
2019,08,14,05,45,15.20
2019,08,14,05,46,15.20
2019,08,14,05,47,15.20
2019,08,14,05,48,15.20
2019,08,14,05,49,15.20
2019,08,14,05,50,15.20
2019,08,14,05,51,15.20
2019,08,14,05,52,15.20
2019,08,14,05,53,15.20
2019,08,14,05,54,15.20
2019,08,14,05,55,15.20
2019,08,14,05,56,15.20
2019,08,14,05,57,15.20
2019,08,14,05,58,15.20
2019,08,14,05,59,15.20
2019,08,14,06,00,15.20
2019,08,14,06,01,15.20
2019,08,14,06,02,15.20
2019,08,14,06,03,15.10
2019,08,14,06,04,15.10
2019,08,14,06,05,15.10
2019,08,14,06,06,15.10
2019,08,14,06,07,15.10
2019,08,14,06,08,15.10
2019,08,14,06,09,15.10
2019,08,14,06,10,15.10
2019,08,14,06,11,15.10
2019,08,14,06,12,15.10
2019,08,14,06,13,15.10
2019,08,14,06,14,15.00
2019,08,14,06,15,15.00
2019,08,14,06,16,15.00
2019,08,14,06,17,14.90
2019,08,14,06,18,14.90
2019,08,14,06,19,14.90
2019,08,14,06,20,14.90
2019,08,14,06,21,14.90
2019,08,14,06,22,14.90
2019,08,14,06,23,14.90
2019,08,14,06,24,14.90
2019,08,14,06,25,14.90
2019,08,14,06,26,14.90
2019,08,14,06,27,14.80
2019,08,14,06,28,14.80
2019,08,14,06,29,14.80
2019,08,14,06,30,14.80
2019,08,14,06,31,14.80
2019,08,14,06,32,14.80
2019,08,14,06,33,14.80
2019,08,14,06,34,14.80
2019,08,14,06,35,14.70
2019,08,14,06,36,14.70
2019,08,14,06,37,14.70
2019,08,14,06,38,14.70
2019,08,14,06,39,14.70
2019,08,14,06,40,14.70
2019,08,14,06,41,14.70
2019,08,14,06,42,14.70
2019,08,14,06,43,14.70
2019,08,14,06,44,14.70
2019,08,14,06,45,14.70
2019,08,14,06,46,14.70
2019,08,14,06,47,14.70
2019,08,14,06,48,14.80
2019,08,14,06,49,14.80
2019,08,14,06,50,14.80
2019,08,14,06,51,14.80
2019,08,14,06,52,14.80
2019,08,14,06,53,14.80
2019,08,14,06,54,14.80
2019,08,14,06,55,14.90
2019,08,14,06,56,14.90
2019,08,14,06,57,14.90
2019,08,14,06,58,14.90
2019,08,14,06,59,14.90
2019,08,14,07,00,15.00
2019,08,14,07,01,15.00
2019,08,14,07,02,15.00
2019,08,14,07,03,15.10
2019,08,14,07,04,15.10
2019,08,14,07,05,15.10
2019,08,14,07,06,15.10
2019,08,14,07,07,15.20
2019,08,14,07,08,15.20
2019,08,14,07,09,15.30
2019,08,14,07,10,15.30
2019,08,14,07,11,15.40
2019,08,14,07,12,15.40
2019,08,14,07,13,15.50
2019,08,14,07,14,15.60
2019,08,14,07,15,15.60
2019,08,14,07,16,15.70
2019,08,14,07,17,15.70
2019,08,14,07,18,15.80
2019,08,14,07,19,15.80
2019,08,14,07,20,15.80
2019,08,14,07,21,15.90
2019,08,14,07,22,15.90
2019,08,14,07,23,15.90
2019,08,14,07,24,16.00
2019,08,14,07,25,16.00
2019,08,14,07,26,16.10
2019,08,14,07,27,16.10
2019,08,14,07,28,16.20
2019,08,14,07,29,16.30
2019,08,14,07,30,16.40
2019,08,14,07,31,16.50
2019,08,14,07,32,16.60
2019,08,14,07,33,16.70
2019,08,14,07,34,16.80
2019,08,14,07,35,16.90
2019,08,14,07,36,17.00
2019,08,14,07,37,17.00
2019,08,14,07,38,17.10
2019,08,14,07,39,17.20
2019,08,14,07,40,17.30
2019,08,14,07,41,17.40
2019,08,14,07,42,17.50
2019,08,14,07,43,17.50
2019,08,14,07,44,17.60
2019,08,14,07,45,17.70
2019,08,14,07,46,17.80
2019,08,14,07,47,17.90
2019,08,14,07,48,17.90
2019,08,14,07,49,18.00
2019,08,14,07,50,18.10
2019,08,14,07,51,18.20
2019,08,14,07,52,18.30
2019,08,14,07,53,18.30
2019,08,14,07,54,18.40
2019,08,14,07,55,18.50
2019,08,14,07,56,18.50
2019,08,14,07,57,18.60
2019,08,14,07,58,18.70
2019,08,14,07,59,18.70
2019,08,14,08,00,18.80
2019,08,14,08,01,18.80
2019,08,14,08,02,18.90
2019,08,14,08,03,19.00
2019,08,14,08,04,19.00
2019,08,14,08,05,19.10
2019,08,14,08,06,19.20
2019,08,14,08,07,19.20
2019,08,14,08,08,19.20
2019,08,14,08,09,19.30
2019,08,14,08,10,19.30
2019,08,14,08,11,19.40
2019,08,14,08,12,19.50
2019,08,14,08,13,19.50
2019,08,14,08,14,19.60
2019,08,14,08,15,19.70
2019,08,14,08,16,19.80
2019,08,14,08,17,19.80
2019,08,14,08,18,19.90
2019,08,14,08,19,19.90
2019,08,14,08,20,20.00
2019,08,14,08,21,20.10
2019,08,14,08,22,20.10
2019,08,14,08,23,20.20
2019,08,14,08,24,20.20
2019,08,14,08,25,20.30
2019,08,14,08,26,20.30
2019,08,14,08,27,20.30
2019,08,14,08,28,20.40
2019,08,14,08,29,20.40
2019,08,14,08,30,20.40
2019,08,14,08,31,20.40
2019,08,14,08,32,20.50
2019,08,14,08,33,20.50
2019,08,14,08,34,20.60
2019,08,14,08,35,20.60
2019,08,14,08,36,20.60
2019,08,14,08,37,20.70
2019,08,14,08,38,20.80
2019,08,14,08,39,20.80
2019,08,14,08,40,20.80
2019,08,14,08,41,20.90
2019,08,14,08,42,20.90
2019,08,14,08,43,20.90
2019,08,14,08,44,21.00
2019,08,14,08,45,21.00
2019,08,14,08,46,21.00
2019,08,14,08,47,21.10
2019,08,14,08,48,21.10
2019,08,14,08,49,21.10
2019,08,14,08,50,21.10
2019,08,14,08,51,21.10
2019,08,14,08,52,21.20
2019,08,14,08,53,21.20
2019,08,14,08,54,21.20
2019,08,14,08,55,21.30
2019,08,14,08,56,21.30
2019,08,14,08,57,21.30
2019,08,14,08,58,21.30
2019,08,14,08,59,21.40
2019,08,14,09,00,21.40
2019,08,14,09,01,21.50
2019,08,14,09,02,21.50
2019,08,14,09,03,21.60
2019,08,14,09,04,21.60
2019,08,14,09,05,21.70
2019,08,14,09,06,21.70
2019,08,14,09,07,21.80
2019,08,14,09,08,21.80
2019,08,14,09,09,21.90
2019,08,14,09,10,21.90
2019,08,14,09,11,22.00
2019,08,14,09,12,22.00
2019,08,14,09,13,22.10
2019,08,14,09,14,22.10
2019,08,14,09,15,22.20
2019,08,14,09,16,22.30
2019,08,14,09,17,22.30
2019,08,14,09,18,22.30
2019,08,14,09,19,22.20
2019,08,14,09,20,22.20
2019,08,14,09,21,22.20
2019,08,14,09,22,22.20
2019,08,14,09,23,22.20
2019,08,14,09,24,22.10
2019,08,14,09,25,22.10
2019,08,14,09,26,22.10
2019,08,14,09,27,22.10
2019,08,14,09,28,22.00
2019,08,14,09,29,22.00
2019,08,14,09,30,22.00
2019,08,14,09,31,22.00
2019,08,14,09,32,21.90
2019,08,14,09,33,21.90
2019,08,14,09,34,21.90
2019,08,14,09,35,22.00
2019,08,14,09,36,22.00
2019,08,14,09,37,22.20
2019,08,14,09,38,22.30
2019,08,14,09,39,22.40
2019,08,14,09,40,22.40
2019,08,14,09,41,22.50
2019,08,14,09,42,22.50
2019,08,14,09,43,22.50
2019,08,14,09,44,22.50
2019,08,14,09,45,22.60
2019,08,14,09,46,22.50
2019,08,14,09,47,22.50
2019,08,14,09,48,22.40
2019,08,14,09,49,22.40
2019,08,14,09,50,22.40
2019,08,14,09,51,22.30
2019,08,14,09,52,22.30
2019,08,14,09,53,22.30
2019,08,14,09,54,22.30
2019,08,14,09,55,22.30
2019,08,14,09,56,22.30
2019,08,14,09,57,22.40
2019,08,14,09,58,22.40
2019,08,14,09,59,22.50
2019,08,14,10,00,22.50
2019,08,14,10,01,22.50
2019,08,14,10,02,22.50
2019,08,14,10,03,22.50
2019,08,14,10,04,22.60
2019,08,14,10,05,22.60
2019,08,14,10,06,22.70
2019,08,14,10,07,22.70
2019,08,14,10,08,22.80
2019,08,14,10,09,22.80
2019,08,14,10,10,22.80
2019,08,14,10,11,22.90
2019,08,14,10,12,22.80
2019,08,14,10,13,22.80
2019,08,14,10,14,22.80
2019,08,14,10,15,22.80
2019,08,14,10,16,22.80
2019,08,14,10,17,22.90
2019,08,14,10,18,22.90
2019,08,14,10,19,22.80
2019,08,14,10,20,22.80
2019,08,14,10,21,22.80
2019,08,14,10,22,22.80
2019,08,14,10,23,22.80
2019,08,14,10,24,22.70
2019,08,14,10,25,22.60
2019,08,14,10,26,22.50
2019,08,14,10,27,22.40
2019,08,14,10,28,22.30
2019,08,14,10,29,22.20
2019,08,14,10,30,22.10
2019,08,14,10,31,22.00
2019,08,14,10,32,21.90
2019,08,14,10,33,21.80
2019,08,14,10,34,21.80
2019,08,14,10,35,21.80
2019,08,14,10,36,21.90
2019,08,14,10,37,21.90
2019,08,14,10,38,22.00
2019,08,14,10,39,22.00
2019,08,14,10,40,22.10
2019,08,14,10,41,22.10
2019,08,14,10,42,22.20
2019,08,14,10,43,22.30
2019,08,14,10,44,22.30
2019,08,14,10,45,22.30
2019,08,14,10,46,22.30
2019,08,14,10,47,22.40
2019,08,14,10,48,22.50
2019,08,14,10,49,22.50
2019,08,14,10,50,22.60
2019,08,14,10,51,22.60
2019,08,14,10,52,22.60
2019,08,14,10,53,22.60
2019,08,14,10,54,22.50
2019,08,14,10,55,22.40
2019,08,14,10,56,22.30
2019,08,14,10,57,22.20
2019,08,14,10,58,22.10
2019,08,14,10,59,22.00
2019,08,14,11,00,22.00
2019,08,14,11,01,22.00
2019,08,14,11,02,22.00
2019,08,14,11,03,22.00
2019,08,14,11,04,22.10
2019,08,14,11,05,22.10
2019,08,14,11,06,22.20
2019,08,14,11,07,22.20
2019,08,14,11,08,22.20
2019,08,14,11,09,22.20
2019,08,14,11,10,22.30
2019,08,14,11,11,22.30
2019,08,14,11,12,22.30
2019,08,14,11,13,22.40
2019,08,14,11,14,22.40
2019,08,14,11,15,22.50
2019,08,14,11,16,22.40
2019,08,14,11,17,22.40
2019,08,14,11,18,22.40
2019,08,14,11,19,22.30
2019,08,14,11,20,22.30
2019,08,14,11,21,22.40
2019,08,14,11,22,22.40
2019,08,14,11,23,22.40
2019,08,14,11,24,22.50
2019,08,14,11,25,22.50
2019,08,14,11,26,22.60
2019,08,14,11,27,22.60
2019,08,14,11,28,22.70
2019,08,14,11,29,22.70
2019,08,14,11,30,22.80
2019,08,14,11,31,22.90
2019,08,14,11,32,23.00
2019,08,14,11,33,23.10
2019,08,14,11,34,23.10
2019,08,14,11,35,23.10
2019,08,14,11,36,23.10
2019,08,14,11,37,23.10
2019,08,14,11,38,23.10
2019,08,14,11,39,23.10
2019,08,14,11,40,23.10
2019,08,14,11,41,23.10
2019,08,14,11,42,23.10
2019,08,14,11,43,23.20
2019,08,14,11,44,23.20
2019,08,14,11,45,23.20
2019,08,14,11,46,23.20
2019,08,14,11,47,23.10
2019,08,14,11,48,23.10
2019,08,14,11,49,23.10
2019,08,14,11,50,23.00
2019,08,14,11,51,23.00
2019,08,14,11,52,22.90
2019,08,14,11,53,22.90
2019,08,14,11,54,23.00
2019,08,14,11,55,23.10
2019,08,14,11,56,23.10
2019,08,14,11,57,23.10
2019,08,14,11,58,23.20
2019,08,14,11,59,23.20
2019,08,14,12,00,23.20
2019,08,14,12,01,23.20
2019,08,14,12,02,23.20
2019,08,14,12,03,23.20
2019,08,14,12,04,23.20
2019,08,14,12,05,23.20
2019,08,14,12,06,23.20
2019,08,14,12,07,23.20
2019,08,14,12,08,23.20
2019,08,14,12,09,23.20
2019,08,14,12,10,23.30
2019,08,14,12,11,23.30
2019,08,14,12,12,23.30
2019,08,14,12,13,23.30
2019,08,14,12,14,23.30
2019,08,14,12,15,23.30
2019,08,14,12,16,23.30
2019,08,14,12,17,23.30
2019,08,14,12,18,23.20
2019,08,14,12,19,23.20
2019,08,14,12,20,23.10
2019,08,14,12,21,23.10
2019,08,14,12,22,23.20
2019,08,14,12,23,23.20
2019,08,14,12,24,23.20
2019,08,14,12,25,23.20
2019,08,14,12,26,23.20
2019,08,14,12,27,23.30
2019,08,14,12,28,23.30
2019,08,14,12,29,23.30
2019,08,14,12,30,23.30
2019,08,14,12,31,23.40
2019,08,14,12,32,23.50
2019,08,14,12,33,23.60
2019,08,14,12,34,23.70
2019,08,14,12,35,23.80
2019,08,14,12,36,23.80
2019,08,14,12,37,24.00
2019,08,14,12,38,24.10
2019,08,14,12,39,24.30
2019,08,14,12,40,24.30
2019,08,14,12,41,24.30
2019,08,14,12,42,24.40
2019,08,14,12,43,24.40
2019,08,14,12,44,24.40
2019,08,14,12,45,24.40
2019,08,14,12,46,24.40
2019,08,14,12,47,24.30
2019,08,14,12,48,24.20
2019,08,14,12,49,24.10
2019,08,14,12,50,24.10
2019,08,14,12,51,24.00
2019,08,14,12,52,24.10
2019,08,14,12,53,24.00
2019,08,14,12,54,24.10
2019,08,14,12,55,24.10
2019,08,14,12,56,24.10
2019,08,14,12,57,24.10
2019,08,14,12,58,24.20
2019,08,14,12,59,24.30
2019,08,14,13,00,24.40
2019,08,14,13,01,24.50
2019,08,14,13,02,24.60
2019,08,14,13,03,24.50
2019,08,14,13,04,24.50
2019,08,14,13,05,24.50
2019,08,14,13,06,24.40
2019,08,14,13,07,24.40
2019,08,14,13,08,24.50
2019,08,14,13,09,24.60
2019,08,14,13,10,24.70
2019,08,14,13,11,24.70
2019,08,14,13,12,24.80
2019,08,14,13,13,24.80
2019,08,14,13,14,24.70
2019,08,14,13,15,24.60
2019,08,14,13,16,24.50
2019,08,14,13,17,24.40
2019,08,14,13,18,24.40
2019,08,14,13,19,24.30
2019,08,14,13,20,24.40
2019,08,14,13,21,24.40
2019,08,14,13,22,24.40
2019,08,14,13,23,24.40
2019,08,14,13,24,24.40
2019,08,14,13,25,24.30
2019,08,14,13,26,24.40
2019,08,14,13,27,24.40
2019,08,14,13,28,24.50
2019,08,14,13,29,24.50
2019,08,14,13,30,24.50
2019,08,14,13,31,24.40
2019,08,14,13,32,24.50
2019,08,14,13,33,24.50
2019,08,14,13,34,24.50
2019,08,14,13,35,24.50
2019,08,14,13,36,24.50
2019,08,14,13,37,24.50
2019,08,14,13,38,24.50
2019,08,14,13,39,24.60
2019,08,14,13,40,24.70
2019,08,14,13,41,24.70
2019,08,14,13,42,24.70
2019,08,14,13,43,24.70
2019,08,14,13,44,24.60
2019,08,14,13,45,24.60
2019,08,14,13,46,24.50
2019,08,14,13,47,24.40
2019,08,14,13,48,24.40
2019,08,14,13,49,24.40
2019,08,14,13,50,24.40
2019,08,14,13,51,24.40
2019,08,14,13,52,24.50
2019,08,14,13,53,24.60
2019,08,14,13,54,24.70
2019,08,14,13,55,24.70
2019,08,14,13,56,24.80
2019,08,14,13,57,24.80
2019,08,14,13,58,24.90
2019,08,14,13,59,24.90
2019,08,14,14,00,25.00
2019,08,14,14,01,25.10
2019,08,14,14,02,25.20
2019,08,14,14,03,25.10
2019,08,14,14,04,25.10
2019,08,14,14,05,25.00
2019,08,14,14,06,25.00
2019,08,14,14,07,25.00
2019,08,14,14,08,24.90
2019,08,14,14,09,24.90
2019,08,14,14,10,24.90
2019,08,14,14,11,24.90
2019,08,14,14,12,24.90
2019,08,14,14,13,24.90
2019,08,14,14,14,24.90
2019,08,14,14,15,24.80
2019,08,14,14,16,24.80
2019,08,14,14,17,24.80
2019,08,14,14,18,24.90
2019,08,14,14,19,25.00
2019,08,14,14,20,25.10
2019,08,14,14,21,25.20
2019,08,14,14,22,25.40
2019,08,14,14,23,25.50
2019,08,14,14,24,25.60
2019,08,14,14,25,25.70
2019,08,14,14,26,25.70
2019,08,14,14,27,25.80
2019,08,14,14,28,25.80
2019,08,14,14,29,25.80
2019,08,14,14,30,25.80
2019,08,14,14,31,25.90
2019,08,14,14,32,25.90
2019,08,14,14,33,25.90
2019,08,14,14,34,25.90
2019,08,14,14,35,25.90
2019,08,14,14,36,25.80
2019,08,14,14,37,25.80
2019,08,14,14,38,25.90
2019,08,14,14,39,25.90
2019,08,14,14,40,26.00
2019,08,14,14,41,26.10
2019,08,14,14,42,26.20
2019,08,14,14,43,26.20
2019,08,14,14,44,26.20
2019,08,14,14,45,26.10
2019,08,14,14,46,26.10
2019,08,14,14,47,26.00
2019,08,14,14,48,25.80
2019,08,14,14,49,25.70
2019,08,14,14,50,25.60
2019,08,14,14,51,25.60
2019,08,14,14,52,25.60
2019,08,14,14,53,25.60
2019,08,14,14,54,25.60
2019,08,14,14,55,25.60
2019,08,14,14,56,25.60
2019,08,14,14,57,25.70
2019,08,14,14,58,25.80
2019,08,14,14,59,25.80
2019,08,14,15,00,25.80
2019,08,14,15,01,25.80
2019,08,14,15,02,25.80
2019,08,14,15,03,25.80
2019,08,14,15,04,25.80
2019,08,14,15,05,25.90
2019,08,14,15,06,25.90
2019,08,14,15,07,25.90
2019,08,14,15,08,25.90
2019,08,14,15,09,25.80
2019,08,14,15,10,25.80
2019,08,14,15,11,25.80
2019,08,14,15,12,25.80
2019,08,14,15,13,25.80
2019,08,14,15,14,25.80
2019,08,14,15,15,25.70
2019,08,14,15,16,25.70
2019,08,14,15,17,25.80
2019,08,14,15,18,25.90
2019,08,14,15,19,25.90
2019,08,14,15,20,25.90
2019,08,14,15,21,25.90
2019,08,14,15,22,25.80
2019,08,14,15,23,25.80
2019,08,14,15,24,25.80
2019,08,14,15,25,25.70
2019,08,14,15,26,25.70
2019,08,14,15,27,25.70
2019,08,14,15,28,25.60
2019,08,14,15,29,25.60
2019,08,14,15,30,25.70
2019,08,14,15,31,25.70
2019,08,14,15,32,25.70
2019,08,14,15,33,25.70
2019,08,14,15,34,25.80
2019,08,14,15,35,25.80
2019,08,14,15,36,25.80
2019,08,14,15,37,25.70
2019,08,14,15,38,25.60
2019,08,14,15,39,25.60
2019,08,14,15,40,25.50
2019,08,14,15,41,25.50
2019,08,14,15,42,25.40
2019,08,14,15,43,25.30
2019,08,14,15,44,25.30
2019,08,14,15,45,25.30
2019,08,14,15,46,25.30
2019,08,14,15,47,25.30
2019,08,14,15,48,25.40
2019,08,14,15,49,25.40
2019,08,14,15,50,25.40
2019,08,14,15,51,25.40
2019,08,14,15,52,25.40
2019,08,14,15,53,25.40
2019,08,14,15,54,25.40
2019,08,14,15,55,25.40
2019,08,14,15,56,25.40
2019,08,14,15,57,25.50
2019,08,14,15,58,25.50
2019,08,14,15,59,25.60
2019,08,14,16,00,25.60
2019,08,14,16,01,25.60
2019,08,14,16,02,25.60
2019,08,14,16,03,25.50
2019,08,14,16,04,25.40
2019,08,14,16,05,25.40
2019,08,14,16,06,25.40
2019,08,14,16,07,25.40
2019,08,14,16,08,25.50
2019,08,14,16,09,25.50
2019,08,14,16,10,25.50
2019,08,14,16,11,25.40
2019,08,14,16,12,25.40
2019,08,14,16,13,25.30
2019,08,14,16,14,25.40
2019,08,14,16,15,25.30
2019,08,14,16,16,25.30
2019,08,14,16,17,25.40
2019,08,14,16,18,25.40
2019,08,14,16,19,25.40
2019,08,14,16,20,25.30
2019,08,14,16,21,25.30
2019,08,14,16,22,25.30
2019,08,14,16,23,25.30
2019,08,14,16,24,25.30
2019,08,14,16,25,25.30
2019,08,14,16,26,25.30
2019,08,14,16,27,25.40
2019,08,14,16,28,25.30
2019,08,14,16,29,25.40
2019,08,14,16,30,25.40
2019,08,14,16,31,25.40
2019,08,14,16,32,25.40
2019,08,14,16,33,25.30
2019,08,14,16,34,25.30
2019,08,14,16,35,25.30
2019,08,14,16,36,25.30
2019,08,14,16,37,25.30
2019,08,14,16,38,25.30
2019,08,14,16,39,25.20
2019,08,14,16,40,25.20
2019,08,14,16,41,25.20
2019,08,14,16,42,25.10
2019,08,14,16,43,25.10
2019,08,14,16,44,25.10
2019,08,14,16,45,25.10
2019,08,14,16,46,25.10
2019,08,14,16,47,25.10
2019,08,14,16,48,25.10
2019,08,14,16,49,25.10
2019,08,14,16,50,25.00
2019,08,14,16,51,25.00
2019,08,14,16,52,25.00
2019,08,14,16,53,24.90
2019,08,14,16,54,24.90
2019,08,14,16,55,24.90
2019,08,14,16,56,24.90
2019,08,14,16,57,24.90
2019,08,14,16,58,24.90
2019,08,14,16,59,24.90
2019,08,14,17,00,24.90
2019,08,14,17,01,24.90
2019,08,14,17,02,24.90
2019,08,14,17,03,24.90
2019,08,14,17,04,24.90
2019,08,14,17,05,24.90
2019,08,14,17,06,24.90
2019,08,14,17,07,24.90
2019,08,14,17,08,24.90
2019,08,14,17,09,24.90
2019,08,14,17,10,24.90
2019,08,14,17,11,24.90
2019,08,14,17,12,24.90
2019,08,14,17,13,24.90
2019,08,14,17,14,24.90
2019,08,14,17,15,24.90
2019,08,14,17,16,24.90
2019,08,14,17,17,24.90
2019,08,14,17,18,24.90
2019,08,14,17,19,24.80